owner,sensor,date,latitude,longitude,vertical_datum,wind_speed,wind_to_direction,wind_speed_of_gust,qcFlag 
LUMCON,ioos:station:LUMCON:102:1,2019-06-01T00:00:00Z,29.1870,-90.6093,0.0,4.1,189.0,4.2,'11111222,11111222,11111222' 
LUMCON,ioos:station:LUMCON:102:1,2019-06-01T00:15:00Z,29.1870,-90.6093,0.0,3.3,175.0,3.4,'11111222,11111222,11111222' 
LUMCON,ioos:station:LUMCON:102:1,2019-06-01T00:30:00Z,29.1870,-90.6093,0.0,3.1,211.0,3.2,'11111222,11111222,11111222' 
LUMCON,ioos:station:LUMCON:102:1,2019-06-01T00:45:00Z,29.1870,-90.6093,0.0,3.2,201.0,3.2,'11111222,11111222,11111222' 
LUMCON,ioos:station:LUMCON:102:1,2019-06-01T01:00:00Z,29.1870,-90.6093,0.0,1.9,227.0,2.1,'11111222,11111222,11111222' 
LUMCON,ioos:station:LUMCON:102:1,2019-06-01T01:15:00Z,29.1870,-90.6093,0.0,7.1,335.0,7.5,'11111222,11111222,11111222' 
LUMCON,ioos:station:LUMCON:102:1,2019-06-01T01:30:00Z,29.1870,-90.6093,0.0,5.5,356.0,5.7,'11111222,11111222,11111222' 
LUMCON,ioos:station:LUMCON:102:1,2019-06-01T01:45:00Z,29.1870,-90.6093,0.0,3.4,342.0,3.5,'11111222,11111222,11111222' 
LUMCON,ioos:station:LUMCON:102:1,2019-06-01T02:00:00Z,29.1870,-90.6093,0.0,1.8,275.0,1.9,'11111222,11111222,11111222' 
LUMCON,ioos:station:LUMCON:102:1,2019-06-01T02:15:00Z,29.1870,-90.6093,0.0,4.5,306.0,4.6,'11111222,11111222,11111222' 
LUMCON,ioos:station:LUMCON:102:1,2019-06-01T02:30:00Z,29.1870,-90.6093,0.0,0.8,278.0,0.9,'11111222,11111222,11111222' 
LUMCON,ioos:station:LUMCON:102:1,2019-06-01T02:45:00Z,29.1870,-90.6093,0.0,0.9,356.0,1.0,'11111222,11111222,11111222' 
LUMCON,ioos:station:LUMCON:102:1,2019-06-01T03:00:00Z,29.1870,-90.6093,0.0,1.1,63.0,1.1,'11111222,11111222,11111222' 
LUMCON,ioos:station:LUMCON:102:1,2019-06-01T03:15:00Z,29.1870,-90.6093,0.0,1.4,97.0,1.4,'11111222,11111222,11111222' 
LUMCON,ioos:station:LUMCON:102:1,2019-06-01T03:30:00Z,29.1870,-90.6093,0.0,1.3,143.0,1.5,'11111222,11111222,11111222' 
LUMCON,ioos:station:LUMCON:102:1,2019-06-01T03:45:00Z,29.1870,-90.6093,0.0,2.6,144.0,2.6,'11111222,11111222,11111222' 
LUMCON,ioos:station:LUMCON:102:1,2019-06-01T04:00:00Z,29.1870,-90.6093,0.0,3.0,142.0,3.1,'11111222,11111222,11111222' 
LUMCON,ioos:station:LUMCON:102:1,2019-06-01T04:15:00Z,29.1870,-90.6093,0.0,3.8,165.0,3.9,'11111222,11111222,11111222' 
LUMCON,ioos:station:LUMCON:102:1,2019-06-01T04:30:00Z,29.1870,-90.6093,0.0,4.3,161.0,4.4,'11111222,11111222,11111222' 
LUMCON,ioos:station:LUMCON:102:1,2019-06-01T04:45:00Z,29.1870,-90.6093,0.0,3.5,186.0,3.6,'11111222,11111222,11111222' 
LUMCON,ioos:station:LUMCON:102:1,2019-06-01T05:00:00Z,29.1870,-90.6093,0.0,4.3,178.0,4.6,'11111222,11111222,11111222' 
LUMCON,ioos:station:LUMCON:102:1,2019-06-01T05:15:00Z,29.1870,-90.6093,0.0,5.1,190.0,5.4,'11111222,11111222,11111222' 
LUMCON,ioos:station:LUMCON:102:1,2019-06-01T05:30:00Z,29.1870,-90.6093,0.0,5.1,167.0,5.3,'11111222,11111222,11111222' 
LUMCON,ioos:station:LUMCON:102:1,2019-06-01T05:45:00Z,29.1870,-90.6093,0.0,4.2,186.0,4.3,'11111222,11111222,11111222' 
LUMCON,ioos:station:LUMCON:102:1,2019-06-01T06:00:00Z,29.1870,-90.6093,0.0,4.0,183.0,4.1,'11111222,11111222,11111222' 
LUMCON,ioos:station:LUMCON:102:1,2019-06-01T06:15:00Z,29.1870,-90.6093,0.0,4.6,185.0,4.7,'11111222,11111222,11111222' 
LUMCON,ioos:station:LUMCON:102:1,2019-06-01T06:30:00Z,29.1870,-90.6093,0.0,3.1,201.0,3.3,'11111222,11111222,11111222' 
LUMCON,ioos:station:LUMCON:102:1,2019-06-01T06:45:00Z,29.1870,-90.6093,0.0,4.6,196.0,4.9,'11111222,11111222,11111222' 
LUMCON,ioos:station:LUMCON:102:1,2019-06-01T07:00:00Z,29.1870,-90.6093,0.0,5.2,188.0,5.3,'11111222,11111222,11111222' 
LUMCON,ioos:station:LUMCON:102:1,2019-06-01T07:15:00Z,29.1870,-90.6093,0.0,4.9,194.0,5.0,'11111222,11111222,11111222' 
LUMCON,ioos:station:LUMCON:102:1,2019-06-01T07:30:00Z,29.1870,-90.6093,0.0,3.9,216.0,4.1,'11111222,11111222,11111222' 
LUMCON,ioos:station:LUMCON:102:1,2019-06-01T07:45:00Z,29.1870,-90.6093,0.0,4.4,207.0,4.7,'11111222,11111222,11111222' 
LUMCON,ioos:station:LUMCON:102:1,2019-06-01T08:00:00Z,29.1870,-90.6093,0.0,4.2,213.0,4.3,'11111222,11111222,11111222' 
LUMCON,ioos:station:LUMCON:102:1,2019-06-01T08:15:00Z,29.1870,-90.6093,0.0,4.5,222.0,4.6,'11111222,11111222,11111222' 
LUMCON,ioos:station:LUMCON:102:1,2019-06-01T08:30:00Z,29.1870,-90.6093,0.0,4.4,239.0,4.5,'11111222,11111222,11111222' 
LUMCON,ioos:station:LUMCON:102:1,2019-06-01T08:45:00Z,29.1870,-90.6093,0.0,4.3,251.0,4.4,'11111222,11111222,11111222' 
LUMCON,ioos:station:LUMCON:102:1,2019-06-01T09:00:00Z,29.1870,-90.6093,0.0,4.7,253.0,5.1,'11111222,11111222,11111222' 
LUMCON,ioos:station:LUMCON:102:1,2019-06-01T09:15:00Z,29.1870,-90.6093,0.0,3.5,236.0,3.6,'11111222,11111222,11111222' 
LUMCON,ioos:station:LUMCON:102:1,2019-06-01T09:30:00Z,29.1870,-90.6093,0.0,4.8,237.0,5.0,'11111222,11111222,11111222' 
LUMCON,ioos:station:LUMCON:102:1,2019-06-01T09:45:00Z,29.1870,-90.6093,0.0,3.5,262.0,3.6,'11111222,11111222,11111222' 
LUMCON,ioos:station:LUMCON:102:1,2019-06-01T10:00:00Z,29.1870,-90.6093,0.0,3.3,246.0,3.3,'11111222,11111222,11111222' 
LUMCON,ioos:station:LUMCON:102:1,2019-06-01T10:15:00Z,29.1870,-90.6093,0.0,5.1,263.0,5.3,'11111222,11111222,11111222' 
LUMCON,ioos:station:LUMCON:102:1,2019-06-01T10:30:00Z,29.1870,-90.6093,0.0,4.9,275.0,5.2,'11111222,11111222,11111222' 
LUMCON,ioos:station:LUMCON:102:1,2019-06-01T10:45:00Z,29.1870,-90.6093,0.0,4.1,261.0,4.2,'11111222,11111222,11111222' 
LUMCON,ioos:station:LUMCON:102:1,2019-06-01T11:00:00Z,29.1870,-90.6093,0.0,5.5,263.0,5.5,'11111222,11111222,11111222' 
LUMCON,ioos:station:LUMCON:102:1,2019-06-01T11:15:00Z,29.1870,-90.6093,0.0,3.9,286.0,3.9,'11111222,11111222,11111222' 
LUMCON,ioos:station:LUMCON:102:1,2019-06-01T11:30:00Z,29.1870,-90.6093,0.0,4.7,285.0,4.9,'11111222,11111222,11111222' 
LUMCON,ioos:station:LUMCON:102:1,2019-06-01T11:45:00Z,29.1870,-90.6093,0.0,3.9,281.0,4.0,'11111222,11111222,11111222' 
LUMCON,ioos:station:LUMCON:102:1,2019-06-01T12:00:00Z,29.1870,-90.6093,0.0,4.3,278.0,4.4,'11111222,11111222,11111222' 
LUMCON,ioos:station:LUMCON:102:1,2019-06-01T12:15:00Z,29.1870,-90.6093,0.0,4.1,296.0,4.3,'11111222,11111222,11111222' 
LUMCON,ioos:station:LUMCON:102:1,2019-06-01T12:30:00Z,29.1870,-90.6093,0.0,3.6,302.0,3.8,'11111222,11111222,11111222' 
LUMCON,ioos:station:LUMCON:102:1,2019-06-01T12:45:00Z,29.1870,-90.6093,0.0,3.7,306.0,3.9,'11111222,11111222,11111222' 
LUMCON,ioos:station:LUMCON:102:1,2019-06-01T13:00:00Z,29.1870,-90.6093,0.0,3.9,310.0,4.1,'11111222,11111222,11111222' 
LUMCON,ioos:station:LUMCON:102:1,2019-06-01T13:15:00Z,29.1870,-90.6093,0.0,4.4,301.0,4.5,'11111222,11111222,11111222' 
LUMCON,ioos:station:LUMCON:102:1,2019-06-01T13:30:00Z,29.1870,-90.6093,0.0,3.4,319.0,3.6,'11111222,11111222,11111222' 
LUMCON,ioos:station:LUMCON:102:1,2019-06-01T13:45:00Z,29.1870,-90.6093,0.0,3.5,317.0,3.8,'11111222,11111222,11111222' 
LUMCON,ioos:station:LUMCON:102:1,2019-06-01T14:00:00Z,29.1870,-90.6093,0.0,3.0,310.0,3.2,'11111222,11111222,11111222' 
LUMCON,ioos:station:LUMCON:102:1,2019-06-01T14:15:00Z,29.1870,-90.6093,0.0,2.9,314.0,2.9,'11111222,11111222,11111222' 
LUMCON,ioos:station:LUMCON:102:1,2019-06-01T14:30:00Z,29.1870,-90.6093,0.0,1.8,306.0,1.8,'11111222,11111222,11111222' 
LUMCON,ioos:station:LUMCON:102:1,2019-06-01T14:45:00Z,29.1870,-90.6093,0.0,1.6,341.0,1.6,'11111222,11111222,11111222' 
LUMCON,ioos:station:LUMCON:102:1,2019-06-01T15:00:00Z,29.1870,-90.6093,0.0,1.3,297.0,1.4,'11111222,11111222,11111222' 
LUMCON,ioos:station:LUMCON:102:1,2019-06-01T15:15:00Z,29.1870,-90.6093,0.0,0.8,283.0,1.0,'11111222,11111222,11111222' 
LUMCON,ioos:station:LUMCON:102:1,2019-06-01T15:30:00Z,29.1870,-90.6093,0.0,1.1,280.0,1.2,'11111222,11111222,11111222' 
LUMCON,ioos:station:LUMCON:102:1,2019-06-01T15:45:00Z,29.1870,-90.6093,0.0,1.0,279.0,1.2,'11111222,11111222,11111222' 
LUMCON,ioos:station:LUMCON:102:1,2019-06-01T16:00:00Z,29.1870,-90.6093,0.0,0.8,305.0,0.8,'11111222,11111222,11111222' 
LUMCON,ioos:station:LUMCON:102:1,2019-06-01T16:15:00Z,29.1870,-90.6093,0.0,0.7,331.0,0.7,'11111222,11111222,11111222' 
LUMCON,ioos:station:LUMCON:102:1,2019-06-01T16:30:00Z,29.1870,-90.6093,0.0,0.7,284.0,0.9,'11111222,11111222,11111222' 
LUMCON,ioos:station:LUMCON:102:1,2019-06-01T16:45:00Z,29.1870,-90.6093,0.0,1.8,197.0,1.9,'11111222,11111222,11111222' 
LUMCON,ioos:station:LUMCON:102:1,2019-06-01T17:00:00Z,29.1870,-90.6093,0.0,1.1,183.0,1.2,'11111222,11111222,11111222' 
LUMCON,ioos:station:LUMCON:102:1,2019-06-01T17:15:00Z,29.1870,-90.6093,0.0,2.7,195.0,2.8,'11111222,11111222,11111222' 
LUMCON,ioos:station:LUMCON:102:1,2019-06-01T17:30:00Z,29.1870,-90.6093,0.0,2.6,184.0,2.9,'11111222,11111222,11111222' 
LUMCON,ioos:station:LUMCON:102:1,2019-06-01T17:45:00Z,29.1870,-90.6093,0.0,1.6,177.0,1.7,'11111222,11111222,11111222' 
LUMCON,ioos:station:LUMCON:102:1,2019-06-01T18:00:00Z,29.1870,-90.6093,0.0,1.3,192.0,1.4,'11111222,11111222,11111222' 
LUMCON,ioos:station:LUMCON:102:1,2019-06-01T18:15:00Z,29.1870,-90.6093,0.0,4.0,195.0,4.4,'11111222,11111222,11111222' 
LUMCON,ioos:station:LUMCON:102:1,2019-06-01T18:30:00Z,29.1870,-90.6093,0.0,3.3,200.0,3.5,'11111222,11111222,11111222' 
LUMCON,ioos:station:LUMCON:102:1,2019-06-01T18:45:00Z,29.1870,-90.6093,0.0,4.3,196.0,4.4,'11111222,11111222,11111222' 
LUMCON,ioos:station:LUMCON:102:1,2019-06-01T19:00:00Z,29.1870,-90.6093,0.0,3.6,188.0,3.6,'11111222,11111222,11111222' 
LUMCON,ioos:station:LUMCON:102:1,2019-06-01T19:15:00Z,29.1870,-90.6093,0.0,4.7,211.0,5.2,'11111222,11111222,11111222' 
LUMCON,ioos:station:LUMCON:102:1,2019-06-01T19:30:00Z,29.1870,-90.6093,0.0,7.0,214.0,7.1,'11111222,11111222,11111222' 
LUMCON,ioos:station:LUMCON:102:1,2019-06-01T19:45:00Z,29.1870,-90.6093,0.0,3.0,202.0,3.2,'11111222,11111222,11111222' 
LUMCON,ioos:station:LUMCON:102:1,2019-06-01T20:00:00Z,29.1870,-90.6093,0.0,4.5,250.0,4.7,'11111222,11111222,11111222' 
LUMCON,ioos:station:LUMCON:102:1,2019-06-01T20:15:00Z,29.1870,-90.6093,0.0,4.7,236.0,4.9,'11111222,11111222,11111222' 
LUMCON,ioos:station:LUMCON:102:1,2019-06-01T20:30:00Z,29.1870,-90.6093,0.0,4.2,228.0,4.3,'11111222,11111222,11111222' 
LUMCON,ioos:station:LUMCON:102:1,2019-06-01T20:45:00Z,29.1870,-90.6093,0.0,5.7,226.0,6.2,'11111222,11111222,11111222' 
LUMCON,ioos:station:LUMCON:102:1,2019-06-01T21:00:00Z,29.1870,-90.6093,0.0,5.4,255.0,5.6,'11111222,11111222,11111222' 
LUMCON,ioos:station:LUMCON:102:1,2019-06-01T21:15:00Z,29.1870,-90.6093,0.0,6.3,233.0,6.5,'11111222,11111222,11111222' 
LUMCON,ioos:station:LUMCON:102:1,2019-06-01T21:30:00Z,29.1870,-90.6093,0.0,6.1,225.0,6.3,'11111222,11111222,11111222' 
LUMCON,ioos:station:LUMCON:102:1,2019-06-01T21:45:00Z,29.1870,-90.6093,0.0,5.4,219.0,5.7,'11111222,11111222,11111222' 
LUMCON,ioos:station:LUMCON:102:1,2019-06-01T22:00:00Z,29.1870,-90.6093,0.0,6.8,233.0,7.1,'11111222,11111222,11111222' 
LUMCON,ioos:station:LUMCON:102:1,2019-06-01T22:15:00Z,29.1870,-90.6093,0.0,6.1,236.0,6.3,'11111222,11111222,11111222' 
LUMCON,ioos:station:LUMCON:102:1,2019-06-01T22:30:00Z,29.1870,-90.6093,0.0,6.4,238.0,6.6,'11111222,11111222,11111222' 
LUMCON,ioos:station:LUMCON:102:1,2019-06-01T22:45:00Z,29.1870,-90.6093,0.0,6.9,241.0,7.1,'11111222,11111222,11111222' 
LUMCON,ioos:station:LUMCON:102:1,2019-06-01T23:00:00Z,29.1870,-90.6093,0.0,6.5,233.0,7.0,'11111222,11111222,11111222' 
LUMCON,ioos:station:LUMCON:102:1,2019-06-01T23:15:00Z,29.1870,-90.6093,0.0,4.6,244.0,5.1,'11111222,11111222,11111222' 
LUMCON,ioos:station:LUMCON:102:1,2019-06-01T23:30:00Z,29.1870,-90.6093,0.0,5.7,220.0,6.0,'11111222,11111222,11111222' 
LUMCON,ioos:station:LUMCON:102:1,2019-06-01T23:45:00Z,29.1870,-90.6093,0.0,4.6,223.0,4.8,'11111222,11111222,11111222' 
LUMCON,ioos:station:LUMCON:102:1,2019-06-02T00:00:00Z,29.1870,-90.6093,0.0,5.0,238.0,5.1,'11111222,11111222,11111222' 
LUMCON,ioos:station:LUMCON:102:1,2019-06-02T00:15:00Z,29.1870,-90.6093,0.0,6.2,250.0,6.5,'11111222,11111222,11111222' 
LUMCON,ioos:station:LUMCON:102:1,2019-06-02T00:30:00Z,29.1870,-90.6093,0.0,5.4,247.0,5.9,'11111222,11111222,11111222' 
LUMCON,ioos:station:LUMCON:102:1,2019-06-02T00:45:00Z,29.1870,-90.6093,0.0,4.6,234.0,4.7,'11111222,11111222,11111222' 
LUMCON,ioos:station:LUMCON:102:1,2019-06-02T01:00:00Z,29.1870,-90.6093,0.0,4.8,251.0,5.1,'11111222,11111222,11111222' 
LUMCON,ioos:station:LUMCON:102:1,2019-06-02T01:15:00Z,29.1870,-90.6093,0.0,5.3,250.0,5.5,'11111222,11111222,11111222' 
LUMCON,ioos:station:LUMCON:102:1,2019-06-02T01:30:00Z,29.1870,-90.6093,0.0,4.4,225.0,4.6,'11111222,11111222,11111222' 
LUMCON,ioos:station:LUMCON:102:1,2019-06-02T01:45:00Z,29.1870,-90.6093,0.0,4.5,262.0,4.7,'11111222,11111222,11111222' 
LUMCON,ioos:station:LUMCON:102:1,2019-06-02T02:00:00Z,29.1870,-90.6093,0.0,3.8,244.0,3.9,'11111222,11111222,11111222' 
LUMCON,ioos:station:LUMCON:102:1,2019-06-02T02:15:00Z,29.1870,-90.6093,0.0,4.2,234.0,4.5,'11111222,11111222,11111222' 
LUMCON,ioos:station:LUMCON:102:1,2019-06-02T02:30:00Z,29.1870,-90.6093,0.0,4.9,264.0,5.0,'11111222,11111222,11111222' 
LUMCON,ioos:station:LUMCON:102:1,2019-06-02T02:45:00Z,29.1870,-90.6093,0.0,4.9,258.0,5.0,'11111222,11111222,11111222' 
LUMCON,ioos:station:LUMCON:102:1,2019-06-02T03:00:00Z,29.1870,-90.6093,0.0,4.3,230.0,4.4,'11111222,11111222,11111222' 
LUMCON,ioos:station:LUMCON:102:1,2019-06-02T03:15:00Z,29.1870,-90.6093,0.0,5.1,213.0,5.3,'11111222,11111222,11111222' 
LUMCON,ioos:station:LUMCON:102:1,2019-06-02T03:30:00Z,29.1870,-90.6093,0.0,3.2,226.0,3.3,'11111222,11111222,11111222' 
LUMCON,ioos:station:LUMCON:102:1,2019-06-02T03:45:00Z,29.1870,-90.6093,0.0,4.1,221.0,4.4,'11111222,11111222,11111222' 
LUMCON,ioos:station:LUMCON:102:1,2019-06-02T04:00:00Z,29.1870,-90.6093,0.0,4.6,223.0,4.9,'11111222,11111222,11111222' 
LUMCON,ioos:station:LUMCON:102:1,2019-06-02T04:15:00Z,29.1870,-90.6093,0.0,5.4,212.0,5.5,'11111222,11111222,11111222' 
LUMCON,ioos:station:LUMCON:102:1,2019-06-02T04:30:00Z,29.1870,-90.6093,0.0,4.0,218.0,4.0,'11111222,11111222,11111222' 
LUMCON,ioos:station:LUMCON:102:1,2019-06-02T04:45:00Z,29.1870,-90.6093,0.0,3.9,226.0,4.0,'11111222,11111222,11111222' 
LUMCON,ioos:station:LUMCON:102:1,2019-06-02T05:00:00Z,29.1870,-90.6093,0.0,5.0,230.0,5.2,'11111222,11111222,11111222' 
LUMCON,ioos:station:LUMCON:102:1,2019-06-02T05:15:00Z,29.1870,-90.6093,0.0,5.2,232.0,5.4,'11111222,11111222,11111222' 
LUMCON,ioos:station:LUMCON:102:1,2019-06-02T05:30:00Z,29.1870,-90.6093,0.0,5.1,224.0,5.1,'11111222,11111222,11111222' 
LUMCON,ioos:station:LUMCON:102:1,2019-06-02T05:45:00Z,29.1870,-90.6093,0.0,4.9,233.0,5.0,'11111222,11111222,11111222' 
LUMCON,ioos:station:LUMCON:102:1,2019-06-02T06:00:00Z,29.1870,-90.6093,0.0,5.1,219.0,5.3,'11111222,11111222,11111222' 
LUMCON,ioos:station:LUMCON:102:1,2019-06-02T06:15:00Z,29.1870,-90.6093,0.0,5.0,227.0,5.2,'11111222,11111222,11111222' 
LUMCON,ioos:station:LUMCON:102:1,2019-06-02T06:30:00Z,29.1870,-90.6093,0.0,5.2,225.0,5.4,'11111222,11111222,11111222' 
LUMCON,ioos:station:LUMCON:102:1,2019-06-02T06:45:00Z,29.1870,-90.6093,0.0,4.9,235.0,5.2,'11111222,11111222,11111222' 
LUMCON,ioos:station:LUMCON:102:1,2019-06-02T07:00:00Z,29.1870,-90.6093,0.0,5.2,226.0,5.2,'11111222,11111222,11111222' 
LUMCON,ioos:station:LUMCON:102:1,2019-06-02T07:15:00Z,29.1870,-90.6093,0.0,5.3,227.0,5.5,'11111222,11111222,11111222' 
LUMCON,ioos:station:LUMCON:102:1,2019-06-02T07:30:00Z,29.1870,-90.6093,0.0,5.0,223.0,5.5,'11111222,11111222,11111222' 
LUMCON,ioos:station:LUMCON:102:1,2019-06-02T07:45:00Z,29.1870,-90.6093,0.0,5.9,235.0,6.2,'11111222,11111222,11111222' 
LUMCON,ioos:station:LUMCON:102:1,2019-06-02T08:00:00Z,29.1870,-90.6093,0.0,6.7,238.0,6.8,'11111222,11111222,11111222' 
LUMCON,ioos:station:LUMCON:102:1,2019-06-02T08:15:00Z,29.1870,-90.6093,0.0,6.7,247.0,6.9,'11111222,11111222,11111222' 
LUMCON,ioos:station:LUMCON:102:1,2019-06-02T08:30:00Z,29.1870,-90.6093,0.0,5.6,234.0,5.8,'11111222,11111222,11111222' 
LUMCON,ioos:station:LUMCON:102:1,2019-06-02T08:45:00Z,29.1870,-90.6093,0.0,7.1,254.0,7.3,'11111222,11111222,11111222' 
LUMCON,ioos:station:LUMCON:102:1,2019-06-02T09:00:00Z,29.1870,-90.6093,0.0,6.3,261.0,6.4,'11111222,11111222,11111222' 
LUMCON,ioos:station:LUMCON:102:1,2019-06-02T09:15:00Z,29.1870,-90.6093,0.0,6.1,250.0,6.3,'11111222,11111222,11111222' 
LUMCON,ioos:station:LUMCON:102:1,2019-06-02T09:30:00Z,29.1870,-90.6093,0.0,6.1,246.0,6.3,'11111222,11111222,11111222' 
LUMCON,ioos:station:LUMCON:102:1,2019-06-02T09:45:00Z,29.1870,-90.6093,0.0,6.4,246.0,6.6,'11111222,11111222,11111222' 
LUMCON,ioos:station:LUMCON:102:1,2019-06-02T10:00:00Z,29.1870,-90.6093,0.0,6.5,252.0,6.6,'11111222,11111222,11111222' 
LUMCON,ioos:station:LUMCON:102:1,2019-06-02T10:15:00Z,29.1870,-90.6093,0.0,6.6,257.0,6.6,'11111222,11111222,11111222' 
LUMCON,ioos:station:LUMCON:102:1,2019-06-02T10:30:00Z,29.1870,-90.6093,0.0,6.0,259.0,6.1,'11111222,11111222,11111222' 
LUMCON,ioos:station:LUMCON:102:1,2019-06-02T10:45:00Z,29.1870,-90.6093,0.0,5.8,258.0,6.0,'11111222,11111222,11111222' 
LUMCON,ioos:station:LUMCON:102:1,2019-06-02T11:00:00Z,29.1870,-90.6093,0.0,5.3,257.0,5.4,'11111222,11111222,11111222' 
LUMCON,ioos:station:LUMCON:102:1,2019-06-02T11:15:00Z,29.1870,-90.6093,0.0,6.5,257.0,6.9,'11111222,11111222,11111222' 
LUMCON,ioos:station:LUMCON:102:1,2019-06-02T11:30:00Z,29.1870,-90.6093,0.0,6.4,248.0,6.7,'11111222,11111222,11111222' 
LUMCON,ioos:station:LUMCON:102:1,2019-06-02T11:45:00Z,29.1870,-90.6093,0.0,5.8,252.0,5.9,'11111222,11111222,11111222' 
LUMCON,ioos:station:LUMCON:102:1,2019-06-02T12:00:00Z,29.1870,-90.6093,0.0,5.7,247.0,5.9,'11111222,11111222,11111222' 
LUMCON,ioos:station:LUMCON:102:1,2019-06-02T12:15:00Z,29.1870,-90.6093,0.0,5.9,242.0,6.2,'11111222,11111222,11111222' 
LUMCON,ioos:station:LUMCON:102:1,2019-06-02T12:30:00Z,29.1870,-90.6093,0.0,5.4,249.0,5.5,'11111222,11111222,11111222' 
LUMCON,ioos:station:LUMCON:102:1,2019-06-02T12:45:00Z,29.1870,-90.6093,0.0,5.9,250.0,6.0,'11111222,11111222,11111222' 
LUMCON,ioos:station:LUMCON:102:1,2019-06-02T13:00:00Z,29.1870,-90.6093,0.0,5.4,248.0,5.5,'11111222,11111222,11111222' 
LUMCON,ioos:station:LUMCON:102:1,2019-06-02T13:15:00Z,29.1870,-90.6093,0.0,5.2,264.0,5.5,'11111222,11111222,11111222' 
LUMCON,ioos:station:LUMCON:102:1,2019-06-02T13:30:00Z,29.1870,-90.6093,0.0,5.4,262.0,5.5,'11111222,11111222,11111222' 
LUMCON,ioos:station:LUMCON:102:1,2019-06-02T13:45:00Z,29.1870,-90.6093,0.0,5.3,266.0,5.5,'11111222,11111222,11111222' 
LUMCON,ioos:station:LUMCON:102:1,2019-06-02T14:00:00Z,29.1870,-90.6093,0.0,5.4,258.0,5.5,'11111222,11111222,11111222' 
LUMCON,ioos:station:LUMCON:102:1,2019-06-02T14:15:00Z,29.1870,-90.6093,0.0,5.0,270.0,5.2,'11111222,11111222,11111222' 
LUMCON,ioos:station:LUMCON:102:1,2019-06-02T14:30:00Z,29.1870,-90.6093,0.0,5.3,257.0,5.4,'11111222,11111222,11111222' 
LUMCON,ioos:station:LUMCON:102:1,2019-06-02T14:45:00Z,29.1870,-90.6093,0.0,4.6,264.0,4.6,'11111222,11111222,11111222' 
LUMCON,ioos:station:LUMCON:102:1,2019-06-02T15:00:00Z,29.1870,-90.6093,0.0,4.3,289.0,4.4,'11111222,11111222,11111222' 
LUMCON,ioos:station:LUMCON:102:1,2019-06-02T15:15:00Z,29.1870,-90.6093,0.0,4.6,297.0,4.7,'11111222,11111222,11111222' 
LUMCON,ioos:station:LUMCON:102:1,2019-06-02T15:30:00Z,29.1870,-90.6093,0.0,5.1,282.0,5.2,'11111222,11111222,11111222' 
LUMCON,ioos:station:LUMCON:102:1,2019-06-02T15:45:00Z,29.1870,-90.6093,0.0,4.6,304.0,4.9,'11111222,11111222,11111222' 
LUMCON,ioos:station:LUMCON:102:1,2019-06-02T16:00:00Z,29.1870,-90.6093,0.0,3.5,314.0,3.6,'11111222,11111222,11111222' 
LUMCON,ioos:station:LUMCON:102:1,2019-06-02T16:15:00Z,29.1870,-90.6093,0.0,3.6,298.0,3.7,'11111222,11111222,11111222' 
LUMCON,ioos:station:LUMCON:102:1,2019-06-02T16:30:00Z,29.1870,-90.6093,0.0,3.6,294.0,3.6,'11111222,11111222,11111222' 
LUMCON,ioos:station:LUMCON:102:1,2019-06-02T16:45:00Z,29.1870,-90.6093,0.0,2.8,286.0,2.9,'11111222,11111222,11111222' 
LUMCON,ioos:station:LUMCON:102:1,2019-06-02T17:00:00Z,29.1870,-90.6093,0.0,3.8,309.0,4.0,'11111222,11111222,11111222' 
LUMCON,ioos:station:LUMCON:102:1,2019-06-02T17:15:00Z,29.1870,-90.6093,0.0,1.8,290.0,1.9,'11111222,11111222,11111222' 
LUMCON,ioos:station:LUMCON:102:1,2019-06-02T17:30:00Z,29.1870,-90.6093,0.0,1.8,316.0,1.8,'11111222,11111222,11111222' 
LUMCON,ioos:station:LUMCON:102:1,2019-06-02T17:45:00Z,29.1870,-90.6093,0.0,0.7,245.0,0.8,'11111222,11111222,11111222' 
LUMCON,ioos:station:LUMCON:102:1,2019-06-02T18:00:00Z,29.1870,-90.6093,0.0,1.2,213.0,1.2,'11111222,11111222,11111222' 
LUMCON,ioos:station:LUMCON:102:1,2019-06-02T18:15:00Z,29.1870,-90.6093,0.0,1.2,197.0,1.3,'11111222,11111222,11111222' 
LUMCON,ioos:station:LUMCON:102:1,2019-06-02T18:30:00Z,29.1870,-90.6093,0.0,2.4,208.0,2.5,'11111222,11111222,11111222' 
LUMCON,ioos:station:LUMCON:102:1,2019-06-02T18:45:00Z,29.1870,-90.6093,0.0,2.3,214.0,2.5,'11111222,11111222,11111222' 
LUMCON,ioos:station:LUMCON:102:1,2019-06-02T19:00:00Z,29.1870,-90.6093,0.0,2.4,216.0,2.6,'11111222,11111222,11111222' 
LUMCON,ioos:station:LUMCON:102:1,2019-06-02T19:15:00Z,29.1870,-90.6093,0.0,4.3,197.0,4.4,'11111222,11111222,11111222' 
LUMCON,ioos:station:LUMCON:102:1,2019-06-02T19:30:00Z,29.1870,-90.6093,0.0,3.2,195.0,3.4,'11111222,11111222,11111222' 
LUMCON,ioos:station:LUMCON:102:1,2019-06-02T19:45:00Z,29.1870,-90.6093,0.0,2.4,175.0,2.6,'11111222,11111222,11111222' 
LUMCON,ioos:station:LUMCON:102:1,2019-06-02T20:00:00Z,29.1870,-90.6093,0.0,3.0,186.0,3.2,'11111222,11111222,11111222' 
LUMCON,ioos:station:LUMCON:102:1,2019-06-02T20:15:00Z,29.1870,-90.6093,0.0,3.8,205.0,4.0,'11111222,11111222,11111222' 
LUMCON,ioos:station:LUMCON:102:1,2019-06-02T20:30:00Z,29.1870,-90.6093,0.0,4.5,197.0,4.6,'11111222,11111222,11111222' 
LUMCON,ioos:station:LUMCON:102:1,2019-06-02T20:45:00Z,29.1870,-90.6093,0.0,5.8,198.0,6.1,'11111222,11111222,11111222' 
LUMCON,ioos:station:LUMCON:102:1,2019-06-02T21:00:00Z,29.1870,-90.6093,0.0,5.0,201.0,5.1,'11111222,11111222,11111222' 
LUMCON,ioos:station:LUMCON:102:1,2019-06-02T21:15:00Z,29.1870,-90.6093,0.0,3.4,232.0,3.6,'11111222,11111222,11111222' 
LUMCON,ioos:station:LUMCON:102:1,2019-06-02T21:30:00Z,29.1870,-90.6093,0.0,3.7,225.0,3.8,'11111222,11111222,11111222' 
LUMCON,ioos:station:LUMCON:102:1,2019-06-02T21:45:00Z,29.1870,-90.6093,0.0,4.4,223.0,4.7,'11111222,11111222,11111222' 
LUMCON,ioos:station:LUMCON:102:1,2019-06-02T22:00:00Z,29.1870,-90.6093,0.0,4.9,222.0,5.2,'11111222,11111222,11111222' 
LUMCON,ioos:station:LUMCON:102:1,2019-06-02T22:15:00Z,29.1870,-90.6093,0.0,4.0,218.0,4.2,'11111222,11111222,11111222' 
LUMCON,ioos:station:LUMCON:102:1,2019-06-02T22:30:00Z,29.1870,-90.6093,0.0,5.0,229.0,5.1,'11111222,11111222,11111222' 
LUMCON,ioos:station:LUMCON:102:1,2019-06-02T22:45:00Z,29.1870,-90.6093,0.0,6.8,39.0,7.0,'11111222,11111222,11111222' 
LUMCON,ioos:station:LUMCON:102:1,2019-06-02T23:00:00Z,29.1870,-90.6093,0.0,9.4,63.0,9.7,'11111222,11111222,11111222' 
LUMCON,ioos:station:LUMCON:102:1,2019-06-02T23:15:00Z,29.1870,-90.6093,0.0,6.6,81.0,7.1,'11111222,11111222,11111222' 
LUMCON,ioos:station:LUMCON:102:1,2019-06-02T23:30:00Z,29.1870,-90.6093,0.0,5.1,109.0,5.2,'11111222,11111222,11111222' 
LUMCON,ioos:station:LUMCON:102:1,2019-06-02T23:45:00Z,29.1870,-90.6093,0.0,5.0,134.0,5.3,'11111222,11111222,11111222' 
LUMCON,ioos:station:LUMCON:102:1,2019-06-03T00:00:00Z,29.1870,-90.6093,0.0,6.1,166.0,6.3,'11111222,11111222,11111222' 
LUMCON,ioos:station:LUMCON:102:1,2019-06-03T00:15:00Z,29.1870,-90.6093,0.0,5.7,165.0,6.0,'11111222,11111222,11111222' 
LUMCON,ioos:station:LUMCON:102:1,2019-06-03T00:30:00Z,29.1870,-90.6093,0.0,3.8,157.0,4.0,'11111222,11111222,11111222' 
LUMCON,ioos:station:LUMCON:102:1,2019-06-03T00:45:00Z,29.1870,-90.6093,0.0,3.6,152.0,3.8,'11111222,11111222,11111222' 
LUMCON,ioos:station:LUMCON:102:1,2019-06-03T01:00:00Z,29.1870,-90.6093,0.0,4.6,156.0,5.1,'11111222,11111222,11111222' 
LUMCON,ioos:station:LUMCON:102:1,2019-06-03T01:15:00Z,29.1870,-90.6093,0.0,5.4,157.0,5.7,'11111222,11111222,11111222' 
LUMCON,ioos:station:LUMCON:102:1,2019-06-03T01:30:00Z,29.1870,-90.6093,0.0,4.2,172.0,4.5,'11111222,11111222,11111222' 
LUMCON,ioos:station:LUMCON:102:1,2019-06-03T01:45:00Z,29.1870,-90.6093,0.0,4.1,186.0,4.2,'11111222,11111222,11111222' 